AFL1281 UWKD-UUEE

Flight info

Callsign AFL1281
Flight time 1h 22m
Altitude 38000
Route APTAR1G APTAR L158 DIMGI DIMGI3W
Aircraft A320/M-SDE3FGHIRWY/LB1

Departure

Time 2026-05-07 12:36
Airport Kazan International Airport (UWKD)

Arrival

Time 2026-05-07 13:58
Airport Sheremetyevo International Airport (UUEE)
Time Latitude Longitude Altitude Speed Heading
2026-05-07 12:11 55.60695 49.30020 416 ft 0 kts 34°
2026-05-07 12:25 55.60691 49.30016 416 ft 3 kts 34°
2026-05-07 12:26 55.60669 49.29988 413 ft 4 kts 34°
2026-05-07 12:26 55.60647 49.29962 410 ft 4 kts 34°
2026-05-07 12:26 55.60625 49.29934 410 ft 3 kts 34°
2026-05-07 12:26 55.60621 49.29930 410 ft 0 kts 34°
2026-05-07 12:29 55.60639 49.29930 408 ft 7 kts 346°
2026-05-07 12:29 55.60683 49.29813 411 ft 15 kts 305°
2026-05-07 12:29 55.60750 49.29642 407 ft 17 kts 305°
2026-05-07 12:29 55.60818 49.29465 414 ft 11 kts 292°
2026-05-07 12:30 55.60762 49.29363 414 ft 14 kts 209°
2026-05-07 12:30 55.60666 49.29249 411 ft 20 kts 214°
2026-05-07 12:30 55.60575 49.29093 416 ft 18 kts 259°
2026-05-07 12:30 55.60585 49.28847 416 ft 22 kts 275°
2026-05-07 12:31 55.60607 49.28578 413 ft 21 kts 301°
2026-05-07 12:31 55.60688 49.28359 409 ft 22 kts 303°
2026-05-07 12:31 55.60783 49.28109 411 ft 26 kts 305°
2026-05-07 12:31 55.60885 49.27853 413 ft 26 kts 305°
2026-05-07 12:32 55.60988 49.27593 412 ft 23 kts 305°
2026-05-07 12:32 55.61089 49.27336 412 ft 28 kts 305°
2026-05-07 12:32 55.61194 49.27071 409 ft 24 kts 304°
2026-05-07 12:32 55.61284 49.26828 407 ft 19 kts 303°
2026-05-07 12:33 55.61451 49.26388 413 ft 21 kts 304°
2026-05-07 12:33 55.61534 49.26176 411 ft 20 kts 304°
2026-05-07 12:33 55.61625 49.25946 410 ft 26 kts 305°
2026-05-07 12:34 55.61732 49.25681 409 ft 23 kts 304°
2026-05-07 12:34 55.61822 49.25443 413 ft 22 kts 304°
2026-05-07 12:34 55.61848 49.25285 415 ft 12 kts 230°
2026-05-07 12:34 55.61754 49.25181 409 ft 14 kts 212°
2026-05-07 12:35 55.61666 49.25186 411 ft 16 kts 123°
2026-05-07 12:35 55.61641 49.25256 411 ft 0 kts 123°
2026-05-07 12:35 55.61602 49.25362 409 ft 40 kts 123°
2026-05-07 12:35 55.61295 49.26161 411 ft 113 kts 123°
2026-05-07 12:36 55.60749 49.27591 426 ft 165 kts 120°
2026-05-07 12:36 55.60123 49.29287 1050 ft 165 kts 121°
2026-05-07 12:36 55.59480 49.30957 1813 ft 167 kts 121°
2026-05-07 12:36 55.58770 49.32765 2254 ft 190 kts 122°
2026-05-07 12:37 55.57961 49.34779 2700 ft 212 kts 122°
2026-05-07 12:37 55.57070 49.37029 3118 ft 234 kts 122°
2026-05-07 12:37 55.56150 49.39418 4048 ft 236 kts 121°
2026-05-07 12:37 55.55174 49.41776 4965 ft 243 kts 132°
2026-05-07 12:38 55.53633 49.43291 5462 ft 271 kts 168°
2026-05-07 12:38 55.51726 49.42946 6138 ft 285 kts 206°
2026-05-07 12:38 55.50200 49.40758 6957 ft 286 kts 240°
2026-05-07 12:38 55.49286 49.37638 7674 ft 289 kts 245°
2026-05-07 12:39 55.47992 49.34917 7919 ft 294 kts 220°
2026-05-07 12:39 55.46238 49.33048 7980 ft 296 kts 207°
2026-05-07 12:39 55.44337 49.31662 7985 ft 296 kts 202°
2026-05-07 12:39 55.42510 49.30044 7986 ft 293 kts 219°
2026-05-07 12:40 55.41193 49.27447 7989 ft 287 kts 245°
2026-05-07 12:40 55.40641 49.24146 7990 ft 280 kts 269°
2026-05-07 12:40 55.40786 49.20753 7994 ft 278 kts 281°
2026-05-07 12:40 55.41041 49.17384 7988 ft 278 kts 280°
2026-05-07 12:41 55.41281 49.14014 7984 ft 278 kts 279°
2026-05-07 12:41 55.41512 49.10635 7984 ft 278 kts 279°
2026-05-07 12:41 55.41740 49.07253 7988 ft 278 kts 279°
2026-05-07 12:41 55.41967 49.03871 7988 ft 278 kts 279°
2026-05-07 12:42 55.42195 49.00485 7989 ft 278 kts 279°
2026-05-07 12:42 55.42421 48.97077 8253 ft 286 kts 279°
2026-05-07 12:42 55.42648 48.93623 9373 ft 283 kts 279°
2026-05-07 12:42 55.42876 48.90158 10278 ft 289 kts 278°
2026-05-07 12:43 55.43121 48.86501 10633 ft 313 kts 278°
2026-05-07 12:43 55.43384 48.82602 11203 ft 325 kts 278°
2026-05-07 12:43 55.43647 48.78610 12010 ft 330 kts 278°
2026-05-07 12:43 55.43904 48.74617 12841 ft 334 kts 277°
2026-05-07 12:44 55.44163 48.70534 13669 ft 337 kts 277°
2026-05-07 12:44 55.44423 48.66400 14397 ft 341 kts 277°
2026-05-07 12:44 55.44687 48.62227 15100 ft 345 kts 277°
2026-05-07 12:44 55.44956 48.58002 15788 ft 349 kts 277°
2026-05-07 12:45 55.45277 48.53750 16500 ft 352 kts 282°
2026-05-07 12:45 55.45942 48.49570 17182 ft 356 kts 287°
2026-05-07 12:45 55.46674 48.45393 17916 ft 358 kts 287°
2026-05-07 12:45 55.47415 48.41168 18535 ft 363 kts 287°
2026-05-07 12:46 55.48161 48.36889 19117 ft 367 kts 287°
2026-05-07 12:46 55.48912 48.32569 19719 ft 370 kts 287°
2026-05-07 12:46 55.49667 48.28219 20360 ft 371 kts 287°
2026-05-07 12:46 55.50421 48.23847 20988 ft 373 kts 286°
2026-05-07 12:47 55.51176 48.19450 21576 ft 376 kts 286°
2026-05-07 12:47 55.51936 48.15014 22127 ft 379 kts 286°
2026-05-07 12:47 55.52702 48.10533 22688 ft 383 kts 286°
2026-05-07 12:47 55.53472 48.06015 23220 ft 386 kts 286°
2026-05-07 12:48 55.54237 48.01515 23711 ft 389 kts 286°
2026-05-07 12:48 55.55021 47.96916 24156 ft 392 kts 286°
2026-05-07 12:48 55.55812 47.92283 24595 ft 395 kts 286°
2026-05-07 12:48 55.56606 47.87618 25045 ft 397 kts 286°
2026-05-07 12:49 55.57403 47.82910 25461 ft 401 kts 286°
2026-05-07 12:49 55.58202 47.78166 25854 ft 404 kts 286°
2026-05-07 12:49 55.59003 47.73376 26270 ft 407 kts 286°
2026-05-07 12:49 55.59803 47.68568 26712 ft 409 kts 285°
2026-05-07 12:50 55.60605 47.63731 27197 ft 410 kts 285°
2026-05-07 12:50 55.61409 47.58879 27643 ft 412 kts 285°
2026-05-07 12:50 55.62205 47.54071 28041 ft 414 kts 285°
2026-05-07 12:50 55.63013 47.49172 28454 ft 417 kts 285°
2026-05-07 12:51 55.63828 47.44221 28852 ft 419 kts 285°
2026-05-07 12:51 55.64644 47.39260 29245 ft 422 kts 285°
2026-05-07 12:51 55.65466 47.34261 29633 ft 424 kts 285°
2026-05-07 12:51 55.66293 47.29235 30017 ft 426 kts 285°
2026-05-07 12:52 55.67123 47.24168 30330 ft 429 kts 285°
2026-05-07 12:52 55.67949 47.19074 30651 ft 430 kts 285°
2026-05-07 12:52 55.68774 47.13974 30959 ft 432 kts 285°
2026-05-07 12:52 55.69602 47.08851 31303 ft 432 kts 285°
2026-05-07 12:53 55.70427 47.03729 31706 ft 432 kts 285°
2026-05-07 12:53 55.71245 46.98629 32171 ft 429 kts 285°
2026-05-07 12:53 55.72057 46.93557 32632 ft 427 kts 285°
2026-05-07 12:53 55.72867 46.88499 33066 ft 425 kts 285°
2026-05-07 12:54 55.73662 46.83530 33507 ft 424 kts 285°
2026-05-07 12:54 55.74462 46.78510 33937 ft 422 kts 285°
2026-05-07 12:54 55.75255 46.73497 34303 ft 421 kts 285°
2026-05-07 12:54 55.76042 46.68495 34613 ft 421 kts 285°
2026-05-07 12:55 55.76832 46.63469 34862 ft 423 kts 285°
2026-05-07 12:55 55.77625 46.58437 35145 ft 423 kts 285°
2026-05-07 12:55 55.78415 46.53412 35434 ft 423 kts 285°
2026-05-07 12:55 55.79166 46.48354 35765 ft 422 kts 281°
2026-05-07 12:56 55.79556 46.43205 36108 ft 420 kts 273°
2026-05-07 12:56 55.79726 46.38037 36405 ft 419 kts 273°
2026-05-07 12:56 55.79895 46.32864 36679 ft 419 kts 273°
2026-05-07 12:56 55.80060 46.27698 36949 ft 419 kts 273°
2026-05-07 12:57 55.80225 46.22535 37212 ft 419 kts 273°
2026-05-07 12:57 55.80391 46.17364 37461 ft 419 kts 273°
2026-05-07 12:57 55.80555 46.12195 37712 ft 419 kts 273°
2026-05-07 12:57 55.80718 46.07033 37921 ft 420 kts 273°
2026-05-07 12:58 55.81036 45.96691 37961 ft 418 kts 272°
2026-05-07 12:58 55.81335 45.86353 37959 ft 418 kts 272°
2026-05-07 12:59 55.81624 45.76117 37973 ft 417 kts 272°
2026-05-07 12:59 55.81910 45.65779 37961 ft 415 kts 272°
2026-05-07 13:00 55.82187 45.55594 37949 ft 415 kts 272°
2026-05-07 13:00 55.82457 45.45270 37954 ft 415 kts 272°
2026-05-07 13:01 55.82720 45.35069 37957 ft 415 kts 272°
2026-05-07 13:01 55.82978 45.24799 37953 ft 415 kts 272°
2026-05-07 13:02 55.83218 45.14522 37955 ft 416 kts 272°
2026-05-07 13:02 55.83440 45.04238 37956 ft 416 kts 272°
2026-05-07 13:03 55.83669 44.93954 37955 ft 415 kts 272°
2026-05-07 13:03 55.83902 44.83678 37955 ft 415 kts 271°
2026-05-07 13:04 55.84118 44.73470 37954 ft 415 kts 271°
2026-05-07 13:04 55.84315 44.63216 37944 ft 414 kts 271°
2026-05-07 13:05 55.84517 44.52966 37940 ft 414 kts 271°
2026-05-07 13:05 55.84716 44.42721 37941 ft 414 kts 271°
2026-05-07 13:06 55.84898 44.32467 37929 ft 414 kts 271°
2026-05-07 13:06 55.85066 44.22275 37940 ft 414 kts 271°
2026-05-07 13:07 55.85229 44.12033 37928 ft 414 kts 271°
2026-05-07 13:07 55.85387 44.01777 37921 ft 414 kts 271°
2026-05-07 13:08 55.85533 43.91522 37920 ft 414 kts 271°
2026-05-07 13:08 55.85672 43.81329 37920 ft 414 kts 271°
2026-05-07 13:09 55.85802 43.71081 37915 ft 414 kts 271°
2026-05-07 13:09 55.85927 43.60835 37915 ft 414 kts 271°
2026-05-07 13:10 55.86037 43.50598 37914 ft 414 kts 270°
2026-05-07 13:10 55.86150 43.40339 37917 ft 414 kts 270°
2026-05-07 13:11 55.86253 43.30091 37910 ft 413 kts 270°
2026-05-07 13:11 55.86346 43.19845 37907 ft 413 kts 270°
2026-05-07 13:12 55.86432 43.09677 37905 ft 414 kts 270°
2026-05-07 13:12 55.86508 42.99373 37903 ft 414 kts 270°
2026-05-07 13:13 55.86579 42.89188 37899 ft 413 kts 270°
2026-05-07 13:13 55.86643 42.78957 37895 ft 413 kts 270°
2026-05-07 13:14 55.86702 42.68716 37898 ft 413 kts 270°
2026-05-07 13:14 55.86734 42.60206 37894 ft 414 kts 270°
2026-05-07 13:15 55.86767 42.49949 37893 ft 414 kts 270°
2026-05-07 13:15 55.86794 42.39689 37889 ft 414 kts 270°
2026-05-07 13:16 55.86813 42.29424 37891 ft 415 kts 270°
2026-05-07 13:16 55.86820 42.19214 37893 ft 415 kts 269°
2026-05-07 13:17 55.86818 42.08929 37896 ft 415 kts 269°
2026-05-07 13:17 55.86818 41.98648 37897 ft 415 kts 269°
2026-05-07 13:18 55.86811 41.88363 37903 ft 415 kts 269°
2026-05-07 13:18 55.86781 41.78070 37902 ft 415 kts 269°
2026-05-07 13:19 55.86571 41.67820 37900 ft 414 kts 266°
2026-05-07 13:19 55.86209 41.57641 37882 ft 414 kts 266°
2026-05-07 13:20 55.85856 41.47391 37882 ft 414 kts 266°
2026-05-07 13:20 55.85522 41.37148 37884 ft 415 kts 266°
2026-05-07 13:21 55.85186 41.26899 37883 ft 415 kts 266°
2026-05-07 13:21 55.84854 41.16649 37897 ft 415 kts 266°
2026-05-07 13:22 55.84513 41.06415 37901 ft 414 kts 266°
2026-05-07 13:22 55.84156 40.96209 37897 ft 413 kts 266°
2026-05-07 13:23 55.83784 40.86010 37896 ft 413 kts 266°
2026-05-07 13:23 55.83421 40.75885 37879 ft 413 kts 266°
2026-05-07 13:24 55.83228 40.70769 37379 ft 416 kts 266°
2026-05-07 13:24 55.83032 40.65593 36418 ft 422 kts 266°
2026-05-07 13:24 55.82829 40.60369 35661 ft 423 kts 266°
2026-05-07 13:24 55.82619 40.55142 34876 ft 425 kts 266°
2026-05-07 13:25 55.82411 40.49875 34049 ft 427 kts 266°
2026-05-07 13:25 55.82205 40.44610 33264 ft 427 kts 266°
2026-05-07 13:25 55.81997 40.39360 32585 ft 424 kts 266°
2026-05-07 13:25 55.81784 40.34162 31971 ft 419 kts 266°
2026-05-07 13:26 55.81567 40.29018 31370 ft 415 kts 266°
2026-05-07 13:26 55.81350 40.23929 30757 ft 411 kts 266°
2026-05-07 13:26 55.81135 40.18883 30163 ft 407 kts 266°
2026-05-07 13:26 55.80914 40.13884 29527 ft 404 kts 266°
2026-05-07 13:27 55.80694 40.08932 28888 ft 400 kts 266°
2026-05-07 13:27 55.80474 40.04018 28179 ft 398 kts 266°
2026-05-07 13:27 55.80257 39.99155 27687 ft 391 kts 266°
2026-05-07 13:27 55.80047 39.94425 27206 ft 385 kts 266°
2026-05-07 13:28 55.79833 39.89715 26721 ft 380 kts 266°
2026-05-07 13:28 55.79621 39.85074 26256 ft 374 kts 266°
2026-05-07 13:28 55.79412 39.80498 25796 ft 369 kts 265°
2026-05-07 13:28 55.79163 39.76001 25419 ft 362 kts 264°
2026-05-07 13:29 55.78878 39.71598 25162 ft 358 kts 263°
2026-05-07 13:29 55.78573 39.67214 24906 ft 356 kts 263°
2026-05-07 13:29 55.78261 39.62856 24678 ft 355 kts 263°
2026-05-07 13:29 55.77952 39.58520 24447 ft 354 kts 263°
2026-05-07 13:30 55.77654 39.54192 24211 ft 350 kts 263°
2026-05-07 13:30 55.77359 39.49913 23976 ft 347 kts 263°
2026-05-07 13:30 55.77064 39.45678 23743 ft 345 kts 263°
2026-05-07 13:30 55.76771 39.41449 23509 ft 344 kts 263°
2026-05-07 13:31 55.76489 39.37289 23254 ft 343 kts 263°
2026-05-07 13:31 55.76208 39.33094 22977 ft 342 kts 263°
2026-05-07 13:31 55.75919 39.28914 22688 ft 340 kts 263°
2026-05-07 13:31 55.75627 39.24759 22424 ft 339 kts 262°
2026-05-07 13:32 55.75331 39.20607 22156 ft 338 kts 262°
2026-05-07 13:32 55.75035 39.16488 21893 ft 336 kts 262°
2026-05-07 13:32 55.74740 39.12377 21851 ft 335 kts 262°
2026-05-07 13:32 55.74447 39.08276 21854 ft 335 kts 262°
2026-05-07 13:33 55.74149 39.04162 21865 ft 336 kts 262°
2026-05-07 13:33 55.73852 39.00060 21858 ft 336 kts 262°
2026-05-07 13:33 55.73555 38.95955 21864 ft 336 kts 262°
2026-05-07 13:33 55.73436 38.91819 21823 ft 337 kts 271°
2026-05-07 13:34 55.73628 38.87665 21560 ft 336 kts 274°
2026-05-07 13:34 55.74054 38.79469 21043 ft 333 kts 274°
2026-05-07 13:34 55.74259 38.75391 20802 ft 329 kts 273°
2026-05-07 13:35 55.74453 38.71365 20545 ft 326 kts 273°
2026-05-07 13:35 55.74644 38.67366 20293 ft 325 kts 273°
2026-05-07 13:35 55.74836 38.63381 20047 ft 323 kts 273°
2026-05-07 13:35 55.75141 38.59432 19870 ft 323 kts 281°
2026-05-07 13:36 55.75864 38.55716 19856 ft 326 kts 292°
2026-05-07 13:36 55.77050 38.52176 19859 ft 330 kts 302°
2026-05-07 13:36 55.78363 38.48889 19860 ft 330 kts 302°
2026-05-07 13:36 55.79694 38.45555 19860 ft 330 kts 302°
2026-05-07 13:37 55.81022 38.42227 19859 ft 330 kts 301°
2026-05-07 13:37 55.82344 38.38897 19857 ft 326 kts 301°
2026-05-07 13:37 55.83661 38.35641 19660 ft 323 kts 303°
2026-05-07 13:37 55.85013 38.32470 19330 ft 319 kts 303°
2026-05-07 13:38 55.86373 38.29364 19026 ft 317 kts 304°
2026-05-07 13:38 55.87731 38.26289 18728 ft 315 kts 303°
2026-05-07 13:38 55.89083 38.23227 18428 ft 313 kts 303°
2026-05-07 13:38 55.90422 38.20177 18123 ft 312 kts 303°
2026-05-07 13:39 55.91756 38.17120 17804 ft 311 kts 303°
2026-05-07 13:39 55.93072 38.14081 17503 ft 309 kts 303°
2026-05-07 13:39 55.94362 38.11086 17212 ft 308 kts 303°
2026-05-07 13:39 55.95660 38.08059 16922 ft 306 kts 302°
2026-05-07 13:40 55.96951 38.05049 16635 ft 305 kts 302°
2026-05-07 13:40 55.98239 38.02046 16343 ft 303 kts 302°
2026-05-07 13:40 55.99501 37.99054 16055 ft 300 kts 299°
2026-05-07 13:40 56.00450 37.95784 15778 ft 293 kts 286°
2026-05-07 13:41 56.00950 37.92290 15618 ft 290 kts 277°
2026-05-07 13:41 56.01321 37.88753 15439 ft 289 kts 277°
2026-05-07 13:41 56.01690 37.85235 15260 ft 288 kts 277°
2026-05-07 13:41 56.02113 37.81735 15097 ft 289 kts 284°
2026-05-07 13:42 56.03011 37.78496 14899 ft 293 kts 300°
2026-05-07 13:42 56.04438 37.75829 14709 ft 301 kts 317°
2026-05-07 13:42 56.06282 37.73963 14529 ft 308 kts 328°
2026-05-07 13:42 56.08204 37.72371 14330 ft 308 kts 328°
2026-05-07 13:43 56.10146 37.70764 14136 ft 307 kts 328°
2026-05-07 13:43 56.12078 37.69164 13949 ft 306 kts 328°
2026-05-07 13:43 56.13953 37.67394 13679 ft 303 kts 323°
2026-05-07 13:43 56.15771 37.65470 13248 ft 303 kts 322°
2026-05-07 13:44 56.17581 37.63551 12872 ft 302 kts 322°
2026-05-07 13:44 56.19381 37.61639 12524 ft 299 kts 322°
2026-05-07 13:44 56.21168 37.59737 12136 ft 298 kts 322°
2026-05-07 13:44 56.22945 37.57837 11814 ft 296 kts 322°
2026-05-07 13:45 56.24709 37.55949 11475 ft 293 kts 322°
2026-05-07 13:45 56.26469 37.54068 11103 ft 292 kts 322°
2026-05-07 13:45 56.28192 37.52224 10734 ft 291 kts 321°
2026-05-07 13:45 56.29622 37.49834 10391 ft 276 kts 298°
2026-05-07 13:46 56.30317 37.46724 10047 ft 265 kts 275°
2026-05-07 13:46 56.30248 37.43460 9630 ft 261 kts 254°
2026-05-07 13:46 56.29481 37.40552 9317 ft 257 kts 237°
2026-05-07 13:46 56.28478 37.37884 9005 ft 256 kts 237°
2026-05-07 13:47 56.27486 37.35241 8675 ft 255 kts 238°
2026-05-07 13:47 56.26429 37.32685 8329 ft 256 kts 227°
2026-05-07 13:47 56.24943 37.30919 7992 ft 261 kts 205°
2026-05-07 13:47 56.23131 37.30393 7642 ft 269 kts 181°
2026-05-07 13:48 56.21276 37.31112 7283 ft 274 kts 170°
2026-05-07 13:48 56.19465 37.32023 7121 ft 265 kts 170°
2026-05-07 13:48 56.17795 37.33280 6997 ft 262 kts 147°
2026-05-07 13:48 56.16749 37.35935 6826 ft 267 kts 109°
2026-05-07 13:49 56.16701 37.39195 6613 ft 268 kts 80°
2026-05-07 13:49 56.17117 37.42466 6350 ft 268 kts 75°
2026-05-07 13:49 56.17625 37.45671 6069 ft 266 kts 73°
2026-05-07 13:49 56.18153 37.48850 5805 ft 264 kts 73°
2026-05-07 13:50 56.18669 37.51997 5515 ft 262 kts 74°
2026-05-07 13:50 56.19098 37.55152 5230 ft 260 kts 85°
2026-05-07 13:50 56.18982 37.58350 4964 ft 255 kts 107°
2026-05-07 13:50 56.18272 37.61198 4843 ft 249 kts 128°
2026-05-07 13:51 56.17138 37.63508 4723 ft 247 kts 139°
2026-05-07 13:51 56.15933 37.65711 4594 ft 247 kts 139°
2026-05-07 13:51 56.14729 37.67914 4485 ft 247 kts 138°
2026-05-07 13:51 56.13535 37.70102 4351 ft 246 kts 139°
2026-05-07 13:52 56.12357 37.72263 4238 ft 236 kts 138°
2026-05-07 13:52 56.11232 37.74328 4135 ft 227 kts 139°
2026-05-07 13:52 56.10074 37.76201 4028 ft 221 kts 155°
2026-05-07 13:52 56.08657 37.77033 3916 ft 212 kts 181°
2026-05-07 13:53 56.07237 37.76678 3745 ft 205 kts 202°
2026-05-07 13:53 56.05881 37.75890 3565 ft 205 kts 202°
2026-05-07 13:53 56.04523 37.75108 3407 ft 205 kts 202°
2026-05-07 13:53 56.03185 37.74333 3243 ft 204 kts 205°
2026-05-07 13:54 56.02042 37.72973 3079 ft 196 kts 234°
2026-05-07 13:54 56.01458 37.70838 2927 ft 190 kts 256°
2026-05-07 13:54 56.01133 37.68591 2779 ft 185 kts 256°
2026-05-07 13:54 56.00815 37.66395 2631 ft 179 kts 256°
2026-05-07 13:55 56.00508 37.64292 2559 ft 167 kts 255°
2026-05-07 13:55 56.00234 37.62424 2501 ft 147 kts 256°
2026-05-07 13:55 55.99987 37.60742 2398 ft 136 kts 256°
2026-05-07 13:55 55.99749 37.59129 2261 ft 135 kts 256°
2026-05-07 13:56 55.99513 37.57524 2086 ft 131 kts 255°
2026-05-07 13:56 55.99281 37.55951 1919 ft 130 kts 255°
2026-05-07 13:56 55.99052 37.54398 1757 ft 128 kts 255°
2026-05-07 13:56 55.98815 37.52854 1624 ft 131 kts 255°
2026-05-07 13:57 55.98588 37.51288 1448 ft 129 kts 257°
2026-05-07 13:57 55.98363 37.49719 1346 ft 131 kts 255°
2026-05-07 13:57 55.98126 37.48149 1211 ft 131 kts 259°
2026-05-07 13:57 55.97881 37.46568 930 ft 132 kts 257°
2026-05-07 13:58 55.97653 37.44975 775 ft 132 kts 256°
2026-05-07 13:58 55.97432 37.43433 640 ft 120 kts 257°
2026-05-07 13:58 55.97276 37.42280 640 ft 70 kts 255°
2026-05-07 13:58 55.97172 37.41668 638 ft 39 kts 251°
2026-05-07 13:59 55.97156 37.41355 642 ft 20 kts 318°
2026-05-07 13:59 55.97256 37.41304 643 ft 14 kts 345°
2026-05-07 13:59 55.97371 37.41250 640 ft 17 kts 346°
2026-05-07 13:59 55.97465 37.41206 642 ft 17 kts 343°
2026-05-07 14:00 55.97550 37.41158 639 ft 17 kts 344°
2026-05-07 14:00 55.97658 37.41123 639 ft 12 kts 355°
2026-05-07 14:00 55.97717 37.41113 644 ft 0 kts 355°